Lapse_Rate
8.7 9.0 9.1 9.3 9.4 9.4 9.4 9.5 9.4 9.5 9.6 9.6 9.5 9.5 9.4 9.7 9.8 9.7 9.6 9.3 8.2 6.9 6.7 9.1 8.4 6.3 9.2 9.4 9.6 9.5 9.2 9.4 9.6 9.4 9.3 9.4 9.6 9.5 9.9 9.7 9.8 9.8 9.7
8.5 8.7 9.0 9.0 9.2 9.2 9.3 9.4 9.5 9.6 9.7 9.7 9.8 9.7 9.7 9.7 9.8 9.8 9.6 9.1 8.0 7.1 6.5 8.0 8.8 6.7 9.4 9.5 9.2 9.1 9.3 9.4 9.7 9.0 8.9 8.3 8.8 9.5 9.5 9.8 9.9 9.8 9.7
8.2 8.5 8.8 8.9 9.0 9.0 9.2 9.5 9.5 9.6 9.6 9.7 9.9 9.8 9.8 9.7 9.6 9.7 9.7 8.5 8.3 7.3 6.9 7.6 8.7 7.9 8.1 8.5 8.0 9.1 9.4 9.1 9.5 9.3 8.9 8.1 7.5 8.6 9.3 9.1 9.7 9.7 9.9
8.4 8.6 8.7 8.9 9.0 9.0 9.3 9.5 9.6 9.6 9.7 9.7 9.5 9.3 9.3 9.1 9.4 9.5 9.7 8.5 8.3 6.5 7.4 7.8 8.5 7.9 7.7 8.0 7.6 9.3 9.6 9.3 9.0 9.3 7.3 6.5 6.9 8.0 8.0 9.0 9.4 9.7 9.7
8.3 8.4 8.6 8.9 9.2 9.2 9.2 9.5 9.5 9.5 9.6 9.6 9.5 9.4 9.2 9.4 9.6 9.6 9.4 7.2 8.3 8.0 7.5 7.5 6.1 6.4 8.0 7.7 7.2 8.7 9.5 9.6 9.2 6.7 5.5 5.7 6.8 9.2 8.6 8.1 8.7 9.4 9.6
8.2 8.5 8.7 8.9 9.1 9.2 9.3 9.3 9.4 9.5 9.5 9.5 9.4 9.3 9.1 9.3 9.4 9.5 8.8 8.3 8.2 7.3 6.2 6.4 5.6 6.2 6.4 6.1 7.0 9.0 9.6 7.9 5.7 4.0 6.1 5.8 7.5 8.7 8.0 8.4 8.6 8.7 9.2
8.1 8.3 8.5 8.7 8.8 8.8 9.0 9.2 9.3 9.3 9.4 9.4 9.4 9.4 9.3 9.3 9.0 9.1 8.8 8.0 7.9 6.8 6.3 5.8 5.1 4.9 5.4 6.6 8.1 9.3 8.5 4.0 5.0 5.5 6.3 6.6 9.3 8.2 9.1 9.0 8.7 8.6 9.1
8.1 8.3 8.5 8.6 8.8 8.9 9.0 9.1 9.1 9.1 9.3 9.2 9.4 9.3 9.4 9.4 9.5 6.7 4.0 5.9 5.2 6.8 8.0 7.8 5.0 4.3 5.7 6.8 7.9 6.9 3.4 4.1 4.5 3.9 4.7 6.7 7.8 8.7 9.6 9.2 8.8 8.3 8.7
8.1 8.3 8.5 8.6 8.7 8.8 8.9 9.1 9.1 9.2 9.3 9.5 9.5 9.3 9.2 9.0 9.2 8.1 6.6 4.8 6.0 5.2 4.1 3.7 3.6 3.6 4.2 5.6 4.9 3.0 3.7 3.7 2.9 3.6 4.9 6.7 8.4 9.8 9.8 9.6 9.5 8.8 8.0
7.9 8.2 8.5 8.5 8.8 9.0 9.0 9.1 9.2 9.2 9.2 9.1 8.8 8.7 8.1 7.7 7.6 7.2 6.5 6.0 5.2 4.7 3.4 2.8 3.0 2.2 3.5 3.7 3.6 3.0 2.9 3.7 4.0 4.7 5.0 6.6 9.8 9.8 9.8 9.7 9.6 9.4 8.9
7.9 8.1 8.4 8.6 8.8 9.0 9.0 9.1 9.2 9.3 9.2 9.3 8.5 7.8 6.9 5.3 5.6 6.5 6.0 6.5 6.0 5.2 4.1 4.2 2.2 3.0 2.7 3.0 3.8 4.0 3.8 3.7 3.6 4.2 6.6 9.3 9.7 9.6 9.7 9.7 9.6 9.4 9.3
8.0 8.3 8.4 8.6 8.7 8.8 9.0 9.0 9.2 9.2 9.3 9.3 9.2 6.2 6.6 5.9 5.1 5.4 5.7 5.2 4.0 2.6 2.5 2.1 1.4 2.5 2.7 1.9 1.8 4.1 4.2 4.5 4.8 6.3 9.2 9.6 9.8 9.5 9.6 9.6 9.4 9.5 9.6
8.0 8.2 8.4 8.5 8.7 8.8 8.9 9.1 9.1 9.2 9.3 9.4 8.9 6.5 5.6 5.0 3.4 2.2 1.5 1.0 1.0 0.4 0.8 2.3 2.4 2.6 2.1 1.8 3.6 4.1 4.6 5.1 6.6 8.5 9.7 9.5 9.3 9.5 9.6 9.6 9.6 9.7 9.7
7.9 8.1 8.3 8.5 8.7 8.8 8.9 9.0 8.6 7.6 7.2 6.0 4.1 3.1 2.8 2.2 1.6 1.2 0.9 0.6 0.9 1.7 2.0 2.2 2.0 2.8 3.4 4.1 4.5 4.8 5.3 6.7 7.8 9.3 9.8 9.6 9.6 9.4 9.6 9.6 9.6 9.8 9.5
7.8 8.0 8.1 8.4 8.6 8.7 8.0 6.5 4.5 4.2 4.3 3.7 2.6 2.3 1.9 1.8 1.5 1.6 1.2 1.3 1.9 2.0 2.2 2.7 3.2 3.8 4.5 4.6 4.5 5.4 6.2 7.5 8.2 9.2 9.6 9.7 9.4 7.9 7.8 9.4 9.3 9.4 9.5
7.7 8.0 8.2 8.4 8.4 8.6 8.5 5.6 4.1 3.3 3.1 2.4 2.4 2.4 2.7 2.2 2.3 2.4 2.4 2.1 2.3 2.7 3.7 4.3 4.3 4.0 4.3 3.7 3.3 4.6 6.3 7.3 8.9 9.3 9.6 9.9 8.1 7.4 5.8 5.4 5.4 7.0 8.8
7.9 8.0 8.3 8.5 8.6 8.8 8.6 7.9 6.2 5.4 4.5 4.2 4.5 4.8 5.3 5.2 5.6 5.8 5.0 4.5 5.0 4.5 4.1 3.8 3.9 4.5 5.9 4.1 4.1 4.1 7.5 9.4 9.5 9.5 9.6 9.7 10.2 8.3 9.9 6.9 4.7 5.0 4.9
8.1 8.2 8.5 8.6 8.9 9.1 9.1 9.1 9.2 9.1 8.9 8.9 9.0 8.9 8.7 7.8 7.7 7.1 7.6 6.1 5.2 5.2 5.7 5.9 6.6 7.2 8.0 5.6 4.3 3.9 7.6 8.5 9.6 9.7 9.8 9.9 9.9 9.9 9.1 9.4 9.3 9.0 9.1
8.4 8.6 8.8 8.9 9.1 9.1 9.3 9.2 9.2 9.2 9.0 9.0 9.0 9.0 8.3 7.2 7.2 6.5 6.2 7.1 6.6 7.1 8.0 8.4 9.2 9.5 9.6 5.7 5.5 5.0 8.3 9.1 9.4 9.7 9.8 9.8 9.9 8.6 6.9 8.2 8.7 9.2 9.1
8.7 8.8 8.9 9.0 9.1 9.2 9.3 9.1 9.1 9.1 9.0 9.2 9.3 9.3 9.2 9.1 8.6 7.4 7.5 7.7 9.1 9.5 9.6 9.5 9.6 7.5 9.2 4.6 5.3 5.6 7.2 7.3 8.6 8.7 9.4 7.8 7.7 5.8 5.6 7.1 8.3 8.4 8.9
8.7 8.9 8.9 8.9 9.0 9.3 9.3 9.0 9.1 9.0 9.3 9.4 9.4 9.2 7.8 8.1 9.5 9.5 9.6 9.5 9.5 9.4 9.3 8.4 9.3 9.5 9.2 9.0 6.2 5.1 6.1 6.6 5.7 6.6 7.7 9.1 8.4 8.0 7.6 6.2 6.9 6.8 7.6
8.7 8.9 8.8 8.8 9.1 9.3 9.2 9.0 9.0 9.4 9.5 9.5 9.0 9.0 9.5 9.6 9.6 9.5 9.5 9.5 9.4 9.2 9.1 8.7 8.8 9.3 9.4 7.9 6.8 6.2 5.5 5.5 7.0 7.1 7.5 7.7 7.3 7.1 6.9 7.3 7.6 6.7 5.8
8.8 8.9 8.9 8.9 9.1 9.3 9.4 9.0 9.2 9.5 9.4 9.3 9.3 9.3 9.5 9.5 9.6 9.4 9.3 9.3 9.3 9.1 8.8 8.7 8.9 9.1 9.4 9.7 7.2 7.0 5.2 5.3 6.0 7.0 6.7 6.1 6.0 6.5 7.4 7.7 7.0 6.4 7.1
8.8 9.0 8.9 8.8 8.8 9.2 9.3 9.3 9.4 9.5 9.4 9.2 9.2 9.3 9.2 9.1 9.3 9.5 9.4 9.3 8.6 7.7 8.0 8.8 8.9 9.1 8.9 9.4 7.5 5.7 6.0 6.6 6.7 6.6 7.0 6.3 6.1 6.2 6.4 7.0 7.9 8.2 7.5
8.9 8.9 8.8 8.8 8.9 9.2 9.2 9.5 9.5 9.5 9.3 9.2 9.2 8.9 7.9 8.8 9.2 9.2 7.7 6.8 4.0 3.8 5.4 7.4 6.8 6.5 6.6 7.2 4.9 5.3 6.1 6.2 6.1 6.1 8.1 9.2 8.9 8.6 8.9 8.8 9.0 9.1 8.2
8.8 8.9 8.9 8.9 9.0 9.1 9.1 9.2 9.5 9.5 9.3 9.0 8.1 6.5 6.9 6.9 8.8 9.2 7.6 3.1 4.2 3.5 3.1 3.1 3.9 5.6 5.3 4.8 4.9 5.4 5.5 5.7 6.8 7.9 9.1 8.6 8.5 8.4 8.4 8.3 7.6 8.7 8.6
Wind_Speed
13 17 17 16 16 18 19 18 17 16 11 9 10 10 10 10 10 14 15 12 11 12 15 12 13 15 9 9 8 7 6 5 4 5 6 7 6 5 5 8 7 6 8
15 17 18 19 19 19 19 17 17 17 13 11 10 9 10 10 10 13 13 12 12 14 15 14 11 15 9 10 9 9 7 7 5 5 2 4 5 7 7 7 5 8 10
18 18 19 19 19 20 20 18 18 18 16 14 10 9 8 8 9 10 9 10 14 16 18 18 12 12 10 8 8 9 10 7 5 3 3 2 2 9 4 8 6 6 5
17 20 20 21 20 19 19 19 19 18 17 16 13 14 11 11 10 10 9 7 12 16 18 17 15 14 12 8 9 8 9 9 7 6 2 1 1 3 6 2 7 7 6
20 20 22 22 22 20 19 18 19 19 17 17 16 12 13 11 10 10 12 12 11 19 14 12 11 11 11 8 7 7 10 7 6 4 2 1 4 8 7 8 7 6 7
18 20 19 20 20 19 18 18 19 20 19 17 18 17 16 14 12 12 8 8 7 9 15 16 15 16 11 6 5 7 10 4 6 3 5 4 4 5 5 8 9 9 9
17 17 19 20 20 22 21 19 20 20 19 19 18 19 18 16 14 11 8 8 7 7 11 14 11 8 7 7 9 8 7 5 5 4 4 6 5 5 7 8 8 9 9
16 20 20 20 21 21 22 21 21 20 19 17 18 15 17 12 11 7 8 10 8 9 9 11 11 6 7 10 7 7 4 7 2 4 4 3 6 7 7 7 8 9 9
11 17 20 19 19 20 20 20 20 20 20 19 15 15 14 15 12 13 13 7 7 5 7 10 8 9 10 9 10 5 6 4 4 3 4 4 8 8 7 7 7 8 9
2 7 13 19 17 17 16 17 17 17 15 15 13 12 11 10 8 6 12 9 9 9 11 12 10 9 10 12 9 6 6 4 2 3 4 10 10 9 7 8 8 8 9
5 4 6 10 16 15 15 16 16 17 17 16 15 12 9 9 7 7 6 7 10 10 10 9 9 7 9 8 7 7 6 5 5 7 11 13 12 9 8 8 8 9 9
2 5 5 6 8 11 13 13 13 14 14 13 11 11 9 7 6 6 5 3 4 6 8 10 9 11 10 8 9 7 4 5 7 11 12 12 9 10 11 9 11 10 11
5 5 7 8 8 9 9 11 10 10 9 10 8 10 7 6 7 8 8 8 9 9 9 8 7 7 8 9 7 7 7 9 11 12 12 11 11 11 9 11 11 10 10
7 7 7 8 9 9 9 9 7 8 9 10 11 10 8 8 8 8 7 8 8 9 9 9 10 9 8 7 7 7 8 10 12 11 12 11 11 14 13 12 13 12 11
5 7 7 8 9 11 11 11 10 9 10 11 11 10 9 9 8 8 8 8 8 9 9 9 8 7 6 5 5 6 8 8 11 12 12 13 14 15 12 11 13 13 12
3 4 6 8 9 9 12 11 11 11 11 12 11 10 10 11 10 11 11 10 10 9 10 9 6 5 3 6 7 8 7 11 12 13 13 14 15 15 18 16 15 15 15
6 7 8 9 9 9 11 12 13 12 13 13 13 12 13 12 12 13 12 11 11 9 7 6 4 4 6 7 9 9 10 11 12 13 13 14 13 12 15 15 20 18 18
9 10 10 10 11 12 13 13 14 14 13 13 13 13 13 13 12 11 11 10 7 7 6 5 5 7 8 10 8 5 9 11 14 15 16 15 16 15 14 15 16 16 15
11 11 12 13 13 13 13 14 13 13 13 13 13 13 12 11 11 10 9 7 6 5 5 6 6 3 4 7 1 5 9 11 14 14 16 16 17 18 16 15 16 17 17
11 11 13 13 14 14 14 14 14 14 13 13 13 11 10 10 8 7 6 7 7 4 1 1 2 3 5 13 10 9 7 11 10 13 16 17 17 16 14 14 16 18 17
13 13 13 12 13 13 14 14 14 13 13 12 11 10 9 8 7 6 5 3 3 2 2 1 3 5 5 4 11 10 8 8 10 11 11 11 16 17 17 14 13 16 17
15 14 13 13 12 13 13 14 14 13 12 11 10 9 8 5 5 5 4 3 2 1 1 2 3 3 4 6 11 12 12 14 11 12 11 14 23 27 28 21 22 19 15
15 14 14 14 13 12 12 13 13 12 11 10 10 9 7 6 4 4 3 1 2 2 2 2 3 4 4 5 9 13 16 15 11 11 17 26 28 28 21 22 21 17 9
15 14 15 15 14 12 12 12 12 11 11 10 9 7 5 5 4 3 2 3 2 2 2 3 3 4 5 6 8 9 10 14 13 15 14 19 21 21 20 17 15 11 9
15 15 14 13 14 13 12 11 11 11 10 9 7 6 5 3 4 4 4 3 6 4 3 3 4 4 5 6 11 12 10 11 14 15 12 11 11 11 11 12 12 10 9
17 16 16 15 14 13 12 10 9 9 9 9 6 4 4 3 1 2 5 6 7 6 7 6 4 4 5 11 15 17 17 21 19 11 9 9 10 11 12 11 14 11 10
Wind_Direction
173 158 167 170 166 162 172 179 179 182 183 179 187 193 195 199 204 207 204 198 199 194 215 215 200 206 201 206 197 201 197 202 204 249 229 212 191 231 239 214 248 262 243
175 167 174 175 179 177 184 189 186 186 195 198 198 206 204 203 208 207 203 202 191 200 214 219 201 206 203 203 197 206 193 218 202 266 288 272 175 201 209 241 235 243 268
180 178 182 184 191 189 193 196 195 196 202 211 198 202 209 217 209 212 208 191 202 209 214 217 208 202 209 192 199 205 214 209 191 241 305 276 321 333 268 190 227 258 252
198 184 188 191 196 200 196 202 202 206 199 201 207 204 207 208 209 217 204 205 220 212 217 215 210 210 213 196 195 206 214 233 202 176 195 225 324 281 295 290 213 212 233
197 198 191 194 196 197 201 203 207 211 209 197 225 199 215 215 205 207 211 185 209 214 217 201 195 212 216 211 185 210 212 204 242 155 134 238 256 260 257 276 286 232 222
200 199 197 191 195 198 200 202 209 210 212 205 206 224 207 224 212 208 191 190 201 209 214 209 205 213 208 212 202 207 209 157 152 142 200 217 236 255 291 271 272 281 286
208 208 200 195 195 196 198 200 205 211 208 212 212 212 219 218 228 209 200 206 196 196 213 214 203 197 215 218 210 194 159 142 163 184 225 243 255 264 263 273 278 283 285
209 205 206 202 199 198 197 201 203 210 206 208 211 216 218 220 219 188 179 213 199 208 197 205 198 190 218 218 154 145 133 168 147 119 253 331 260 253 258 270 279 282 282
225 215 205 203 205 200 198 200 206 207 208 206 208 213 217 220 222 205 213 201 213 152 163 175 176 182 214 126 132 121 155 123 152 191 194 251 257 251 259 266 267 268 276
202 211 220 198 207 205 202 199 208 216 216 209 197 213 210 215 221 204 215 203 198 187 178 176 185 153 142 131 146 149 113 134 169 202 225 242 245 254 254 253 256 258 268
109 150 212 230 202 204 199 195 206 208 211 208 192 186 190 199 220 212 213 220 217 204 190 164 129 122 118 143 161 153 140 171 194 230 240 247 248 259 265 262 259 263 268
121 136 160 175 204 208 209 190 203 210 213 203 197 162 183 183 201 202 201 193 94 100 127 130 135 146 152 151 137 139 169 217 241 247 252 250 252 252 254 258 265 264 269
192 164 155 165 166 172 179 185 189 193 189 181 152 126 133 157 95 92 96 103 112 113 117 129 144 140 131 144 150 168 196 226 245 252 255 252 247 253 256 259 263 265 265
203 218 167 159 153 152 151 142 107 80 82 92 96 95 91 92 96 102 106 113 121 131 141 126 125 139 147 146 175 198 232 248 252 260 261 261 267 265 264 263 264 265 263
216 212 207 155 144 134 99 98 100 98 102 101 98 95 95 97 105 112 118 115 117 115 118 122 122 130 149 177 202 228 251 272 278 268 262 255 253 257 263 271 276 286 285
169 174 184 156 126 134 117 116 110 104 102 102 104 108 105 106 112 111 112 114 112 119 125 130 135 133 171 208 226 246 270 269 268 269 275 268 256 242 231 229 238 250 266
160 145 133 129 127 124 126 118 116 116 113 115 121 121 123 118 120 119 116 114 125 129 121 118 133 191 233 218 226 235 268 274 276 279 283 284 281 281 281 248 230 233 233
143 129 122 122 123 123 120 126 124 124 124 121 119 120 119 118 120 123 117 115 121 129 142 173 215 246 252 215 218 212 279 280 280 281 283 282 283 281 282 281 281 265 249
142 133 130 128 127 126 121 120 119 119 119 120 120 120 118 120 119 118 126 129 145 176 199 216 219 268 320 129 119 323 306 298 298 298 296 295 295 296 302 294 284 278 272
140 137 134 132 130 130 131 128 129 127 122 121 121 120 121 121 119 128 152 177 186 160 112 344 340 54 297 82 59 15 324 314 312 308 306 311 313 321 322 315 299 282 275
145 140 139 135 131 132 134 130 126 122 121 122 116 113 116 142 144 125 117 127 114 82 78 282 338 325 4 21 59 35 343 332 325 311 306 302 303 300 308 310 300 293 299
148 148 138 135 135 138 138 132 129 131 128 123 121 128 117 117 123 128 124 137 102 41 331 9 322 333 342 38 61 33 8 341 318 308 305 304 308 304 297 292 283 281 280
155 152 144 141 142 140 141 134 127 127 130 124 117 117 118 113 100 103 82 79 36 12 25 323 329 319 354 327 68 9 344 318 312 305 303 304 298 295 283 272 266 263 268
158 154 148 147 141 136 130 133 132 131 131 128 126 119 115 108 92 105 68 71 40 19 351 336 326 346 331 335 1 336 325 323 318 318 308 297 288 278 270 274 273 258 256
155 153 150 144 141 135 134 136 137 139 132 128 123 111 104 98 121 89 39 75 71 33 353 19 3 348 324 3 340 324 321 322 313 306 298 307 324 325 324 312 289 279 252
157 156 153 147 141 138 133 133 138 132 132 127 109 92 110 98 50 85 146 85 101 118 112 79 31 333 348 338 328 321 321 318 312 308 318 326 326 326 328 323 327 289 271